Regional Weather Roundup
Issued by NWS Midland/Odessa, TX

Home | Current Version | Previous Version | Text Only | Print | Product List | Glossary On
Versions: 1 2 3 4 5 6 7 8 9 10 11 12 13 14 15 16 17 18 19 20 21 22 23 24 25 26 27 28 29 30 31 32 33 34 35 36 37 38 39 40 41 42 43 44 45 46 47 48 49 50
000
ASUS44 KMAF 200810
RWRMAF
MIDLAND AREA WEATHER ROUNDUP
NATIONAL WEATHER SERVICE MIDLAND TX
300 AM CDT WED SEP 20 2017

...IN SOUTHWEST TEXAS AND SOUTHEAST NEW MEXICO...

CITY           SKY/WX    TMP DP  RH WIND       PRES   REMARKS
ALPINE         PTCLDY    74  52  46 CALM      30.08S
ANDREWS        FAIR      74  59  58 S14G20    29.89S
ARTESIA        CLEAR     70  46  43 SW9       29.90R
BIG SPRING     CLEAR     76  65  68 S16       29.89F
CARLSBAD       CLEAR     73  50  44 W9        29.88R
DRYDEN           N/A     73  63  70 N6        29.88S
FORT STOCKTON  CLEAR     75  57  53 S9        29.90F
GUAD PASS      CLEAR     72  44  36 SW22G29   30.04F
HOBBS          CLEAR     72  55  56 SW10      29.91S
MARFA          NOT AVBL
MIDLAND AIRPK  CLEAR     79  63  58 S14       29.89S
MIDLAND INTL   CLEAR     78  62  57 S13       29.88S
ODESSA         CLEAR     77  62  59 S17       29.89S
PECOS          CLEAR     74  52  45 SW6       29.85S
PRESIDIO       FAIR      80  58  46 N6        29.93S
SEMINOLE       CLEAR     73  58  59 S10       29.90S
SNYDER         CLEAR     74  65  75 S7        29.86S
WINK           CLEAR     74  56  53 SE10      29.86R
$$
...OTHER STATIONS IN TEXAS...

CITY           SKY/WX    TMP DP  RH WIND       PRES   REMARKS
ABILENE        CLEAR     75  65  70 SE14      29.84R
AMARILLO       CLEAR     65  47  52 SW9       29.82R
AUSTIN         PTCLDY    78  75  90 S8        29.88F
BROWNSVILLE    CLEAR     80  78  94 SE9       29.88S
CORPUS CHRISTI MOCLDY    79  77  94 S8        29.87F
DALLAS FTW     MOCLDY    83  72  69 S20       29.82S
DEL RIO        CLEAR     73  67  81 E3        29.85F
EL PASO        PTCLDY    80  47  31 VRB3      29.97R
HOUSTON INT    MOCLDY    80  76  87 S8        29.89F
LUBBOCK        PTCLDY    75  59  57 S18G25    29.86R
SAN ANGELO     CLEAR     75  64  68 S8        29.85S
SAN ANTONIO    MOCLDY    78  73  84 S10       29.89F
WACO           CLEAR     80  73  79 S14G23    29.87S
WICHITA FALLS  NOT AVBL
$$
...OTHER LOCATIONS IN NEW MEXICO...

CITY           SKY/WX    TMP DP  RH WIND       PRES   REMARKS
ALAMOGORDO     CLEAR     66  41  39 S8        29.97S
ALBUQUERQUE    CLOUDY    69  36  29 SW15      30.02R
CANNON AFB     CLEAR     67  43  41 W12       29.91S
CLOVIS         CLEAR     67  45  45 W12       29.89S
HOLLOMAN AFB   CLEAR     70  43  37 SW8       29.96S
ROSWELL        CLEAR     71  44  37 W9        29.88R
RUIDOSO        CLEAR     63  37  39 W9        30.14S
SANTA FE       CLOUDY    59  31  34 MISG      30.06R
TRUTH OR CONSE CLEAR     67  40  37 N6        30.00S
TUCUMCARI      CLOUDY    65  34  31 SW8       29.82S
$$




USA.gov is the U.S. government's official web portal to all federal, state and local government web resources and services.